Tillbaka till svenska Fidonet
English   Information   Debug  
FILM   0/18
FNEWS_PUBLISH   4990
FN_SYSOP   42232
FN_SYSOP_OLD1   71952
FTP_FIDO   0/2
FTSC_PUBLIC   0/13977
FUNNY   342/4886
GENEALOGY.EUR   0/71
GET_INFO   105
GOLDED   0/408
HAM   10671/16731
HOLYSMOKE   0/6791
HOT_SITES   0/1
HTMLEDIT   0/71
HUB203   466
HUB_100   264
HUB_400   39
HUMOR   0/29
IC   0/2851
INTERNET   0/424
INTERUSER   0/3
IP_CONNECT   719
JAMNNTPD   0/233
JAMTLAND   0/47
KATTY_KORNER   0/41
LAN   0/16
LINUX-USER   0/19
LINUXHELP   0/1155
LINUX   0/22397
LINUX_BBS   0/957
mail   18.68
mail_fore_ok   249
MENSA   0/341
MODERATOR   0/102
MONTE   0/992
MOSCOW_OKLAHOMA   0/1245
MUFFIN   0/783
MUSIC   0/321
N203_STAT   938
N203_SYSCHAT   313
NET203   321
NET204   69
NET_DEV   0/10
NORD.ADMIN   0/101
NORD.CHAT   0/2572
NORD.FIDONET   189
NORD.HARDWARE   0/28
NORD.KULTUR   0/114
NORD.PROG   0/32
NORD.SOFTWARE   0/88
NORD.TEKNIK   0/58
NORD   0/453
OCCULT_CHAT   0/93
OS2BBS   0/787
OS2DOSBBS   0/580
OS2HW   0/42
OS2INET   0/37
OS2LAN   0/134
OS2PROG   0/36
OS2REXX   0/113
OS2USER-L   207
OS2   0/4831
OSDEBATE   0/18996
PASCAL   0/490
PERL   0/457
PHP   0/45
POINTS   0/405
POLITICS   0/29554
POL_INC   0/14731
PSION   103
R20_ADMIN   1133
R20_AMATORRADIO   0/2
R20_BEST_OF_FIDONET   16
R20_CHAT   0/897
R20_DEPP   0/3
R20_DEV   400
R20_ECHO2   1894
R20_ECHOPRES   0/35
R20_ESTAT   0/719
R20_FIDONETPROG...
...RAM.MYPOINT
  0/2
R20_FIDONETPROGRAM   0/22
R20_FIDONET   0/248
R20_FILEFIND   0/24
R20_FILEFOUND   0/22
R20_HIFI   0/3
R20_INFO2   3786
R20_INTERNET   0/12940
R20_INTRESSE   0/60
R20_INTR_KOM   0/99
R20_KANDIDAT.CHAT   42
R20_KANDIDAT   28
R20_KOM_DEV   112
R20_KONTROLL   0/13360
R20_KORSET   0/18
R20_LOKALTRAFIK   0/24
R20_MODERATOR   0/1852
R20_NC   76
R20_NET200   245
R20_NETWORK.OTH...
...ERNETS
  0/13
R20_OPERATIVSYS...
...TEM.LINUX
  0/44
R20_PROGRAMVAROR   0/1
R20_REC2NEC   534
R20_SFOSM   0/341
R20_SF   0/108
R20_SPRAK.ENGLISH   0/1
R20_SQUISH   107
R20_TEST   2
R20_WORST_OF_FIDONET   20
RAR   0/9
RA_MULTI   106
RA_UTIL   0/162
REGCON.EUR   105/2069
REGCON   0/13
SCIENCE   0/1206
SF   0/239
SHAREWARE_SUPPORT   0/5146
SHAREWRE   0/14
SIMPSONS   0/169
STATS_OLD1   1039/2539.065
STATS_OLD2   0/2530
STATS_OLD3   0/2395.095
STATS_OLD4   0/1692.25
SURVIVOR   0/495
SYSOPS_CORNER   0/3
SYSOP   0/84
TAGLINES   0/112
TEAMOS2   0/4530
TECH   0/2617
TEST.444   0/105
TRAPDOOR   0/19
TREK   714/755
TUB   0/290
UFO   0/40
UNIX   0/1316
USA_EURLINK   0/102
USR_MODEMS   0/1
VATICAN   0/2740
VIETNAM_VETS   0/14
VIRUS   0/378
VIRUS_INFO   0/201
VISUAL_BASIC   0/473
WHITEHOUSE   0/5187
WIN2000   0/101
WIN32   0/30
WIN95   3159/4291
WIN95_OLD1   0/70272
WINDOWS   0/1517
WWB_SYSOP   0/419
WWB_TECH   0/810
ZCC-PUBLIC   0/1
ZEC   4

 
4DOS   0/134
ABORTION   0/7
ALASKA_CHAT   0/506
ALLFIX_FILE   0/1313
ALLFIX_FILE_OLD1   0/7997
ALT_DOS   0/152
AMATEUR_RADIO   0/1039
AMIGASALE   0/14
AMIGA   0/331
AMIGA_INT   0/1
AMIGA_PROG   0/20
AMIGA_SYSOP   0/26
ANIME   0/15
ARGUS   0/924
ASCII_ART   0/340
ASIAN_LINK   0/651
ASTRONOMY   0/417
AUDIO   0/92
AUTOMOBILE_RACING   0/105
BABYLON5   0/17862
BAG   135
BATPOWER   0/361
BBBS.ENGLISH   0/382
BBSLAW   0/109
BBS_ADS   0/5290
BBS_INTERNET   0/507
BIBLE   1106/3563
BINKD   0/1119
BINKLEY   0/215
BLUEWAVE   0/2173
CABLE_MODEMS   0/25
CBM   0/46
CDRECORD   0/66
CDROM   0/20
CLASSIC_COMPUTER   0/378
COMICS   0/15
CONSPRCY   0/899
COOKING   42055
COOKING_OLD1   0/24719
COOKING_OLD2   0/40862
COOKING_OLD3   0/37489
COOKING_OLD4   0/35496
COOKING_OLD5   9370
C_ECHO   0/189
C_PLUSPLUS   0/31
DIRTY_DOZEN   0/201
DOORGAMES   0/2333
DOS_INTERNET   0/196
duplikat   6102
ECHOLIST   0/18295
EC_SUPPORT   0/318
ELECTRONICS   0/359
ELEKTRONIK.GER   1534
ENET.LINGUISTIC   0/13
ENET.POLITICS   0/4
ENET.SOFT   0/11701
ENET.SYSOP   34336
ENET.TALKS   0/32
ENGLISH_TUTOR   0/2000
EVOLUTION   0/1335
FDECHO   0/217
FDN_ANNOUNCE   2381/7068
FIDONEWS   25129
FIDONEWS_OLD1   0/49742
FIDONEWS_OLD2   0/35949
FIDONEWS_OLD3   0/30874
FIDONEWS_OLD4   0/37224
FIDO_SYSOP   12973
FIDO_UTIL   0/180
FILEFIND   0/209
FILEGATE   0/212
Möte HAM, 16731 texter
 lista första sista föregående nästa
Text 2350, 872 rader
Skriven 2008-05-23 04:00:37 av Amsat List (1:323/120.0)
Ärende: [keps]  orb08143.amsa
=============================
[keps]  orb08143.amsa

Return-Path: <keps-bounces@amsat.org>
X-Rcpt: craig.healy@chowda.com
X-UIDL: 1211527733.15371

SB KEPS @ AMSAT  $ORB08143.O
Orbital Elements  08143.OSCAR

HR AMSAT ORBITAL ELEMENTS FOR OSCAR SATELLITES
FROM WA5QGD FORT WORTH,TX May 22, 2008
Send Subscribe/unsubscribe to KEPS at 
http://www.amsat.org/mailman/listinfo/keps
BID: ORB08143.O
TO ALL RADIO AMATEURS BT

Satellite: AO-07
Catalog number: 07530
Epoch time:      08143.51608872
Element set:     182
Inclination:      101.4664 deg
RA of node:       175.8699 deg
Eccentricity:    0.0011697
Arg of perigee:   312.9709 deg
Mean anomaly:     047.0384 deg
Mean motion:   12.53573791 rev/day
Decay rate:       -2.7e-07 rev/day^2
Epoch rev:           53376
Checksum:              322

Satellite: AO-10
Catalog number: 14129
Epoch time:      08142.04210962
Element set:    0510
Inclination:      025.9433 deg
RA of node:       214.3894 deg
Eccentricity:    0.5993602
Arg of perigee:   125.3703 deg
Mean anomaly:     306.1432 deg
Mean motion:   02.05868367 rev/day
Decay rate:        6.0e-08 rev/day^2
Epoch rev:           18754
Checksum:              282

Satellite: UO-11
Catalog number: 14781
Epoch time:      08142.87965161
Element set:    0675
Inclination:      098.1554 deg
RA of node:       176.5182 deg
Eccentricity:    0.0009562
Arg of perigee:   152.4363 deg
Mean anomaly:     207.7347 deg
Mean motion:   14.79644443 rev/day
Decay rate:       4.03e-06 rev/day^2
Epoch rev:           29996
Checksum:              335

Satellite: RS-15
Catalog number: 23439
Epoch time:      08142.58363573
Element set:     118
Inclination:      064.8155 deg
RA of node:       178.0670 deg
Eccentricity:    0.0147983
Arg of perigee:   127.8962 deg
Mean anomaly:     233.5450 deg
Mean motion:   11.27551818 rev/day
Decay rate:       -3.9e-07 rev/day^2
Epoch rev:           55196
Checksum:              328

Satellite: FO-29
Catalog number: 24278
Epoch time:      08142.79398947
Element set:    0788
Inclination:      098.5888 deg
RA of node:       062.5332 deg
Eccentricity:    0.0349772
Arg of perigee:   283.9480 deg
Mean anomaly:     072.3000 deg
Mean motion:   13.52937763 rev/day
Decay rate:        7.6e-07 rev/day^2
Epoch rev:           58082
Checksum:              366

Satellite: SO-33
Catalog number: 25509
Epoch time:      08142.90868348
Element set:    0203
Inclination:      031.4279 deg
RA of node:       104.9406 deg
Eccentricity:    0.0354668
Arg of perigee:   157.5350 deg
Mean anomaly:     204.1228 deg
Mean motion:   14.28215793 rev/day
Decay rate:       2.25e-06 rev/day^2
Epoch rev:           49985
Checksum:              316

Satellite: AO-40
Catalog number: 26609
Epoch time:      08143.33251726
Element set:      61
Inclination:      007.5644 deg
RA of node:       081.5958 deg
Eccentricity:    0.7912190
Arg of perigee:   083.7148 deg
Mean anomaly:     351.2022 deg
Mean motion:   01.25584833 rev/day
Decay rate:       -8.5e-07 rev/day^2
Epoch rev:            3471
Checksum:              295

Satellite: VO-52
Catalog number: 28650
Epoch time:      08142.65966166
Element set:     935
Inclination:      097.7912 deg
RA of node:       209.9961 deg
Eccentricity:    0.0026368
Arg of perigee:   225.3611 deg
Mean anomaly:     134.5443 deg
Mean motion:   14.81462978 rev/day
Decay rate:       -8.2e-07 rev/day^2
Epoch rev:           16467
Checksum:              341

Satellite: PO-63
Catalog number: 29712
Epoch time:      08143.67096083
Element set:     467
Inclination:      097.8762 deg
RA of node:       202.3353 deg
Eccentricity:    0.0015598
Arg of perigee:   103.2766 deg
Mean anomaly:     257.0201 deg
Mean motion:   14.80155031 rev/day
Decay rate:       5.77e-06 rev/day^2
Epoch rev:            7369
Checksum:              311

/EX
SB KEPS @ AMSAT  $ORB08143.D
Orbital Elements  08143.MICROS

HR AMSAT ORBITAL ELEMENTS FOR THE MICROSATS
FROM WA5QGD FORT WORTH,TX May 22, 2008
Send Subscribe/unsubscribe to KEPS at 
http://www.amsat.org/mailman/listinfo/keps
BID: ORB08143.D
TO ALL RADIO AMATEURS BT

Satellite: AO-16
Catalog number: 20439
Epoch time:      08142.51535628
Element set:     325
Inclination:      098.2272 deg
RA of node:       123.9434 deg
Eccentricity:    0.0009929
Arg of perigee:   257.1851 deg
Mean anomaly:     102.8229 deg
Mean motion:   14.31793662 rev/day
Decay rate:       -1.2e-07 rev/day^2
Epoch rev:           95710
Checksum:              302

Satellite: LO-19
Catalog number: 20442
Epoch time:      08142.91644367
Element set:    0254
Inclination:      098.1983 deg
RA of node:       132.9401 deg
Eccentricity:    0.0010926
Arg of perigee:   252.8624 deg
Mean anomaly:     107.1355 deg
Mean motion:   14.32032468 rev/day
Decay rate:        4.1e-07 rev/day^2
Epoch rev:           95731
Checksum:              289

Satellite: AO-27
Catalog number: 22825
Epoch time:      08142.87792232
Element set:    0975
Inclination:      098.3819 deg
RA of node:       103.8893 deg
Eccentricity:    0.0008171
Arg of perigee:   345.4246 deg
Mean anomaly:     014.6701 deg
Mean motion:   14.29239181 rev/day
Decay rate:        2.0e-08 rev/day^2
Epoch rev:           76401
Checksum:              310

Satellite: IO-26
Catalog number: 22826
Epoch time:      08142.65655785
Element set:    0681
Inclination:      098.3746 deg
RA of node:       104.5972 deg
Eccentricity:    0.0008985
Arg of perigee:   342.4145 deg
Mean anomaly:     017.6723 deg
Mean motion:   14.29487705 rev/day
Decay rate:       -5.0e-08 rev/day^2
Epoch rev:           76407
Checksum:              338

